Flag for Slovenia Weather past 2 weeks in Ljubljana, Slovenia

Now
45 °F

Cool.


Feels Like: 45 °F
Forecast: 24 / 56 °F
Wind: 2 mph from Northeast

Location: Ljubljana / Bezigrad

Current Time: Apr 1, 2015 at 5:20:09 AM

Latest Report: Apr 1, 2015 at 4:00 AM


Visibility: N/A

Pressure: 29.76 "Hg

Humidity: 92%

Dew point: 43 °F

Location of LjubljanaLocation

Historic Weather in Ljubljana — Graph

°F

Ljubljana temperature yesterday

Maximum temperature yesterday: 61 °F (at 3:00 PM)
Minimum temperature yesterday: 47 °F (at 7:00 AM)
Average temperature yesterday: 53 °F

Past Weeks' High & Low Weather Summary

 TemperatureHumidityPressure
High63 °F (Mar 29, 4:00 PM)98% (Mar 17, 7:00 AM)30.48 "Hg (Mar 17, 7:00 AM)
Low32 °F (Mar 18, 6:00 AM)28% (Mar 28, 3:00 PM)29.50 "Hg (Mar 30, 1:00 PM)
Average48 °F67%30.00 "Hg
* Reported Mar 17 3:00 AM — Apr 1 4:00 AM, Ljubljana, Weather by CustomWeather, © 2015

Note: Actual official high and low records may vary slightly from our data, if they occured in-between our weather recording intervals... More about our weather records

Advertising

Ljubljana weather history for previous 24 hours

 ConditionsComfort  
Time TempWeatherWind HumidityBarometerVisibility
4:00 AM
Wed, Apr 1
45 °FCool.2 mph92%29.76 "HgN/A
3:00 AM47 °FCool.No wind87%29.75 "HgN/A
2:00 AM49 °FCool.No wind82%29.74 "HgN/A
1:00 AM51 °FCool.1 mph78%29.72 "HgN/A
12:00 AM53 °FCool.1 mph77%29.71 "HgN/A
10:00 PM
Tue, Mar 31
54 °FPassing clouds.1 mph75%29.68 "Hg9 mi
9:00 PM55 °FOvercast.3 mph72%29.65 "Hg9 mi
8:00 PM55 °FOvercast.5 mph71%29.63 "Hg16 mi
7:00 PM56 °FOvercast.5 mph67%29.60 "Hg16 mi
6:00 PM58 °FOvercast.5 mph58%29.59 "Hg16 mi
5:00 PM59 °FOvercast.5 mph58%29.60 "Hg16 mi
4:00 PM60 °FOvercast.6 mph55%29.60 "Hg16 mi
3:00 PM61 °FOvercast.6 mph53%29.61 "Hg19 mi
2:00 PM60 °FPartly sunny.6 mph55%29.65 "Hg17 mi
1:00 PM58 °FPartly sunny.5 mph58%29.67 "Hg17 mi
12:00 PM53 °FPartly sunny.2 mph66%29.73 "Hg17 mi
11:00 AM49 °FOvercast.2 mph68%29.78 "Hg19 mi
10:00 AM49 °FPartly sunny.1 mph69%29.82 "Hg19 mi
9:00 AM47 °FSprinkles. Overcast.2 mph64%29.84 "Hg12 mi
8:00 AM47 °FOvercast.1 mph66%29.85 "Hg19 mi
7:00 AM47 °FPartly sunny.1 mph66%29.87 "Hg19 mi
6:00 AM47 °FPassing clouds.2 mph66%29.90 "Hg19 mi
Weather by CustomWeather, © 2015

See weather overviewHow to use our weather pages